When you browse on this site, cookies collect data to enhance your experience and personalize the content and advertising you see.
Visit our Privacy Policy to learn more. By continuing to use the site, you agree to this use of cookies and data.
  • In France
  • List of Countries
  • For 7 days
  • Water Temperature
  • Satellite Maps
  • Weather Map
  • Weather Widgets
  • user-avatar
    Login

    Hourly Weather Ruse

    Today, 23 March, Saturday

    Time Temperature Precipitation Wind Pressure Humidity
    00:00 +11°C° 0 mm 1 mps 763 mmHg 60%
    01:00 +10°C° 0 mm 1 mps 763 mmHg 61%
    02:00 +10°C° 0 mm 1 mps 763 mmHg 62%
    03:00 +9°C° 0 mm 1 mps 763 mmHg 63%
    04:00 +9°C° 0 mm 1 mps 763 mmHg 64%
    05:00 +8°C° 0 mm 0 mps 763 mmHg 65%
    06:00 +10°C° 0 mm 1 mps 763 mmHg 64%
    07:00 +10°C° 0 mm 1 mps 763 mmHg 63%
    08:00 +12°C° 0 mm 1 mps 762 mmHg 59%
    09:00 +13°C° 0 mm 2 mps 762 mmHg 57%
    10:00 +14°C° 0 mm 2 mps 762 mmHg 54%
    11:00 +14°C° 0 mm 3 mps 762 mmHg 52%
    12:00 +16°C° 0 mm 3 mps 761 mmHg 51%
    13:00 +16°C° 0 mm 2 mps 761 mmHg 50%
    14:00 +17°C° 0 mm 2 mps 761 mmHg 48%
    15:00 +16°C° 0 mm 2 mps 760 mmHg 50%
    16:00 +16°C° 0 mm 3 mps 760 mmHg 51%
    17:00 +15°C° 0 mm 4 mps 760 mmHg 52%
    18:00 +13°C° 0 mm 4 mps 760 mmHg 52%
    19:00 +12°C° 0 mm 5 mps 761 mmHg 52%
    20:00 +9°C° 0 mm 6 mps 761 mmHg 51%
    21:00 +9°C° 0 mm 5 mps 762 mmHg 46%
    22:00 +9°C° 0 mm 5 mps 762 mmHg 41%
    23:00 +8°C° 0 mm 4 mps 762 mmHg 35%

    Tomorrow, 24 March, Sunday

    Time Temperature Precipitation Wind Pressure Humidity
    00:00 +9°C° 0 mm 3 mps 763 mmHg 36%
    01:00 +9°C° 0 mm 3 mps 763 mmHg 37%
    02:00 +9°C° 0 mm 2 mps 763 mmHg 38%
    03:00 +8°C° 0 mm 2 mps 762 mmHg 39%
    04:00 +8°C° 0 mm 1 mps 762 mmHg 41%
    05:00 +7°C° 0 mm 1 mps 762 mmHg 42%
    06:00 +8°C° 0 mm 1 mps 762 mmHg 41%
    07:00 +9°C° 0 mm 1 mps 762 mmHg 40%
    08:00 +8°C° 0 mm 0 mps 762 mmHg 39%
    09:00 +10°C° 0 mm 0 mps 762 mmHg 37%
    10:00 +11°C° 0 mm 0 mps 762 mmHg 34%
    11:00 +13°C° 0 mm 0 mps 762 mmHg 32%
    12:00 +15°C° 0 mm 1 mps 761 mmHg 31%
    13:00 +15°C° 0 mm 1 mps 760 mmHg 31%
    14:00 +16°C° 0 mm 1 mps 760 mmHg 31%
    15:00 +16°C° 0 mm 1 mps 759 mmHg 32%
    16:00 +16°C° 0 mm 1 mps 759 mmHg 33%
    17:00 +18°C° 0 mm 1 mps 758 mmHg 33%
    18:00 +15°C° 0 mm 1 mps 759 mmHg 37%
    19:00 +14°C° 0 mm 1 mps 759 mmHg 41%
    20:00 +12°C° 0 mm 1 mps 759 mmHg 45%
    21:00 +12°C° 0 mm 1 mps 759 mmHg 47%
    22:00 +11°C° 0 mm 1 mps 759 mmHg 49%
    23:00 +11°C° 0 mm 1 mps 759 mmHg 50%

    Day after tomorrow, 25 March, Monday

    Time Temperature Precipitation Wind Pressure Humidity
    00:00 +10°C° 0 mm 1 mps 758 mmHg 51%
    01:00 +10°C° 0 mm 1 mps 758 mmHg 51%
    02:00 +10°C° 0 mm 1 mps 758 mmHg 51%
    03:00 +9°C° 0 mm 1 mps 758 mmHg 51%
    04:00 +9°C° 0 mm 1 mps 757 mmHg 52%
    05:00 +9°C° 0 mm 1 mps 757 mmHg 52%
    06:00 +9°C° 0 mm 1 mps 756 mmHg 51%
    07:00 +10°C° 0 mm 1 mps 756 mmHg 51%
    08:00 +11°C° 0 mm 1 mps 756 mmHg 50%
    09:00 +13°C° 0 mm 2 mps 755 mmHg 45%
    10:00 +15°C° 0 mm 2 mps 755 mmHg 40%
    11:00 +18°C° 0 mm 2 mps 755 mmHg 35%
    12:00 +19°C° 0 mm 2 mps 754 mmHg 32%
    13:00 +20°C° 0 mm 2 mps 753 mmHg 29%
    14:00 +21°C° 0 mm 3 mps 752 mmHg 26%
    15:00 +21°C° 0 mm 2 mps 752 mmHg 28%
    16:00 +20°C° 0 mm 2 mps 751 mmHg 30%
    17:00 +20°C° 0 mm 2 mps 751 mmHg 31%
    18:00 +19°C° 0 mm 1 mps 751 mmHg 34%
    19:00 +18°C° 0 mm 1 mps 751 mmHg 38%
    20:00 +14°C° 0 mm 0 mps 751 mmHg 41%
    21:00 +14°C° 0 mm 1 mps 751 mmHg 44%
    22:00 +13°C° 0 mm 2 mps 751 mmHg 46%
    23:00 +13°C° 0 mm 2 mps 751 mmHg 49%

    26 March, Tuesday

    Time Temperature Precipitation Wind Pressure Humidity
    00:00 +12°C° 0 mm 2 mps 751 mmHg 51%
    01:00 +12°C° 0 mm 2 mps 751 mmHg 54%
    02:00 +10°C° 0 mm 2 mps 751 mmHg 56%
    03:00 +10°C° 0 mm 2 mps 751 mmHg 57%
    04:00 +11°C° 0 mm 1 mps 751 mmHg 58%
    05:00 +11°C° 0 mm 1 mps 751 mmHg 59%
    06:00 +10°C° 0 mm 3 mps 752 mmHg 61%
    07:00 +11°C° 0 mm 4 mps 752 mmHg 64%
    08:00 +10°C° 0 mm 6 mps 753 mmHg 66%
    09:00 +11°C° 0 mm 7 mps 753 mmHg 63%
    10:00 +12°C° 0 mm 7 mps 753 mmHg 59%
    11:00 +13°C° 0 mm 8 mps 754 mmHg 56%
    12:00 +14°C° 0.1 mm 7 mps 754 mmHg 57%
    13:00 +13°C° 0.1 mm 6 mps 754 mmHg 59%
    14:00 +13°C° 0.1 mm 6 mps 755 mmHg 60%
    15:00 +11°C° 0.8 mm 6 mps 755 mmHg 66%
    16:00 +10°C° 0.8 mm 5 mps 756 mmHg 72%
    17:00 +8°C° 0.8 mm 5 mps 756 mmHg 78%
    18:00 +8°C° 0.3 mm 4 mps 757 mmHg 79%
    19:00 +9°C° 0.3 mm 3 mps 758 mmHg 79%
    20:00 +8°C° 0.3 mm 3 mps 758 mmHg 80%
    21:00 +8°C° 0.2 mm 2 mps 759 mmHg 81%
    22:00 +9°C° 0.2 mm 1 mps 759 mmHg 81%
    23:00 +9°C° 0.2 mm 1 mps 760 mmHg 82%

    27 March, Wednesday

    Time Temperature Precipitation Wind Pressure Humidity
    00:00 +9°C° 0 mm 1 mps 760 mmHg 81%
    01:00 +9°C° 0 mm 1 mps 760 mmHg 80%
    02:00 +9°C° 0 mm 1 mps 761 mmHg 80%
    03:00 +7°C° 0 mm 2 mps 761 mmHg 77%
    04:00 +6°C° 0 mm 2 mps 761 mmHg 73%
    05:00 +5°C° 0 mm 3 mps 761 mmHg 70%
    06:00 +5°C° 0.1 mm 3 mps 762 mmHg 68%
    07:00 +5°C° 0.1 mm 3 mps 762 mmHg 65%
    08:00 +5°C° 0.1 mm 3 mps 762 mmHg 63%
    09:00 +7°C° 0.1 mm 3 mps 763 mmHg 60%
    10:00 +7°C° 0.1 mm 3 mps 763 mmHg 57%
    11:00 +8°C° 0.1 mm 3 mps 763 mmHg 54%
    12:00 +9°C° 0 mm 2 mps 763 mmHg 53%
    13:00 +10°C° 0 mm 2 mps 762 mmHg 52%
    14:00 +10°C° 0 mm 2 mps 762 mmHg 51%
    15:00 +10°C° 0 mm 2 mps 762 mmHg 51%
    16:00 +10°C° 0 mm 2 mps 762 mmHg 52%
    17:00 +12°C° 0 mm 2 mps 762 mmHg 52%
    18:00 +10°C° 0 mm 2 mps 763 mmHg 55%
    19:00 +10°C° 0 mm 1 mps 763 mmHg 58%
    20:00 +9°C° 0 mm 1 mps 764 mmHg 61%
    21:00 +8°C° 0 mm 2 mps 764 mmHg 62%
    22:00 +7°C° 0 mm 2 mps 764 mmHg 63%
    23:00 +7°C° 0 mm 2 mps 764 mmHg 64%

    28 March, Thursday

    Time Temperature Precipitation Wind Pressure Humidity
    00:00 +5°C° 0 mm 3 mps 765 mmHg 65%
    01:00 +5°C° 0 mm 3 mps 765 mmHg 66%
    02:00 +4°C° 0 mm 4 mps 765 mmHg 67%
    03:00 +4°C° 0 mm 4 mps 766 mmHg 66%
    04:00 +3°C° 0 mm 4 mps 766 mmHg 65%
    05:00 +3°C° 0 mm 4 mps 766 mmHg 64%
    06:00 +4°C° 0 mm 4 mps 766 mmHg 59%
    07:00 +4°C° 0 mm 4 mps 767 mmHg 55%
    08:00 +5°C° 0 mm 4 mps 767 mmHg 50%
    09:00 +6°C° 0 mm 4 mps 767 mmHg 45%
    10:00 +7°C° 0 mm 4 mps 767 mmHg 41%
    11:00 +8°C° 0 mm 4 mps 767 mmHg 36%
    12:00 +10°C° 0 mm 4 mps 767 mmHg 35%
    13:00 +11°C° 0 mm 4 mps 767 mmHg 34%
    14:00 +11°C° 0 mm 4 mps 766 mmHg 33%
    15:00 +11°C° 0 mm 4 mps 766 mmHg 33%
    16:00 +11°C° 0 mm 4 mps 766 mmHg 33%
    17:00 +10°C° 0 mm 4 mps 766 mmHg 33%
    18:00 +9°C° 0 mm 3 mps 766 mmHg 35%
    19:00 +7°C° 0 mm 3 mps 767 mmHg 38%
    20:00 +6°C° 0 mm 2 mps 767 mmHg 41%
    21:00 +6°C° 0 mm 1 mps 768 mmHg 41%
    22:00 +6°C° 0 mm 1 mps 768 mmHg 42%
    23:00 +5°C° 0 mm 1 mps 768 mmHg 42%
    Show more